User: anonymous   Login
Location: Unspecified
(0.0000°N, 0.0000°E)
Time: 09:51:11
(UTC+00:00)
Language:

SWISSCUBE - Orbit

View from above orbital plane
View from above orbital plane
View from above satellite
View from above satellite

Ground track
Ground track

The orbit data is extracted from the following two-line orbital elements,

1 35932U 09051B   21016.53362914  .00000119  00000-0  37774-4 0  9993
2 35932  98.6066 211.6995 0007401 186.1232 173.9875 14.56476826600844
Epoch (UTC): 16 January 2021 12:48:25
Eccentricity: 0.0007401
inclination: 98.6066°
perigee height: 699 km
apogee height: 710 km
right ascension of ascending node: 211.6995°
argument of perigee: 186.1232°
revolutions per day: 14.56476826
mean anomaly at epoch: 173.9875°
orbit number at epoch: 60084

The dashed part of the orbit path shows where the satellite is in the earth's shadow,  

DLR